Livingston, MT

5:29 AM MDT on May 25, 2018 (GMT -0600)
Mission

Weather History for KLVM - March, 2014

Change the Weather History Date:

Friday, March 14, 2014

  Actual Average Record
Temperature  
Mean Temperature 38 °F 35 °F  
Max Temperature 49 °F 47 °F 70 °F (2013)
Min Temperature 26 °F 23 °F -8 °F (1997)
Degree Days  
Heating Degree Days 27 30  
Month to date heating degree days 456 439  
Since 1 July heating degree days 5699 5787  
Cooling Degree Days 0 0  
Month to date cooling degree days 0 0  
Year to date cooling degree days 0 0  
Moisture  
Dew Point 24 °F    
Average Humidity 57    
Maximum Humidity 79    
Minimum Humidity 34    
Precipitation  
Precipitation 0.02 in 0.03 in 0.64 in (1983)
Month to date precipitation 1.39 0.30  
Year to date precipitation 2.49 1.29  
Sea Level Pressure  
Sea Level Pressure 29.90 in    
Wind  
Wind Speed 22 mph (West)    
Max Wind Speed 35 mph    
Max Gust Speed 48 mph    
Visibility 10 miles    
Events Rain    
T = Trace of Precipitation, MM = Missing Value Source: NWS Daily Summary

Daily Weather History Graph

Daily Weather History Graph

Search for Another Location

Airport or City:

Astronomy

Mar. 14, 2014 Rise Set
Actual Time 7:36 AM MDT 7:26 PM MDT
Civil Twilight 7:06 AM MDT 7:56 PM MDT
Nautical Twilight 6:32 AM MDT 8:30 PM MDT
Astronomical Twilight 5:56 AM MDT 9:05 PM MDT
Moon 5:48 PM MDT (3/14) 6:22 AM MDT (3/14)
Length of Visible Light 12h 49m
Length of Day
11h 50m
Waxing Gibbous, 96% of the Moon is Illuminated
Mar 14
Waxing Gibbous
Mar 16
Full
Mar 23
Last Quarter
Mar 30
New
Apr 7
First Quarter

Hourly Weather History & Observations

Time (MDT) Temp. Windchill Dew Point Humidity Pressure Visibility Wind Dir Wind Speed Gust Speed Precip Events Conditions
12:53 AM 34.0 °F 25.0 °F 21.0 °F 59% 29.97 in 10.0 mi NW 12.7 mph - N/A   Clear
1:53 AM 37.0 °F 26.7 °F 19.9 °F 50% 29.96 in 10.0 mi WSW 19.6 mph - N/A   Clear
2:53 AM 36.0 °F 26.3 °F 19.9 °F 52% 29.96 in 10.0 mi West 16.1 mph - N/A   Clear
3:53 AM 33.1 °F 24.9 °F 19.0 °F 56% 29.96 in 10.0 mi West 10.4 mph - N/A   Clear
4:53 AM 27.0 °F 15.2 °F 17.1 °F 66% 29.97 in 10.0 mi NW 15.0 mph - N/A   Clear
5:39 AM 39.0 °F 27.2 °F 19.9 °F 46% 29.89 in 10.0 mi SW 29.9 mph 34.5 mph N/A   Clear
5:53 AM 39.9 °F 28.2 °F 19.0 °F 43% 29.91 in 10.0 mi SW 31.1 mph 42.6 mph N/A   Clear
6:53 AM 30.9 °F 20.7 °F 18.0 °F 59% 29.96 in 10.0 mi WNW 13.8 mph - N/A   Clear
7:53 AM 37.0 °F 26.4 °F 21.0 °F 52% 29.90 in 10.0 mi WSW 20.7 mph - N/A   Clear
8:53 AM 39.0 °F 28.3 °F 21.9 °F 50% 29.91 in 10.0 mi WSW 24.2 mph - N/A   Clear
9:53 AM 36.0 °F 29.0 °F 19.9 °F 52% 29.94 in 10.0 mi NNW 9.2 mph - N/A   Clear
10:27 AM 43.0 °F 35.7 °F 23.0 °F 45% 29.88 in 10.0 mi West 15.0 mph - N/A   Clear
10:53 AM 44.1 °F 36.2 °F 21.0 °F 40% 29.91 in 10.0 mi West 18.4 mph - N/A   Clear
11:53 AM 46.0 °F 38.0 °F 21.0 °F 37% 29.89 in 10.0 mi West 21.9 mph 27.6 mph N/A   Clear
12:53 PM 48.0 °F - 21.9 °F 36% 29.86 in 10.0 mi West 28.8 mph 33.4 mph N/A   Partly Cloudy
1:53 PM 48.0 °F - 24.1 °F 39% 29.81 in 10.0 mi West 31.1 mph 40.3 mph N/A   Clear
2:53 PM 46.9 °F - 24.1 °F 41% 29.82 in 10.0 mi West 27.6 mph 38.0 mph N/A   Overcast
3:53 PM 46.9 °F - 27.0 °F 46% 29.83 in 10.0 mi West 32.2 mph 40.3 mph N/A   Overcast
4:53 PM 46.9 °F - 30.0 °F 52% 29.87 in 10.0 mi West 29.9 mph 38.0 mph N/A   Overcast
5:53 PM 45.0 °F 35.8 °F 30.0 °F 56% 29.84 in 10.0 mi WSW 26.5 mph 38.0 mph N/A   Overcast
6:53 PM 43.0 °F 34.2 °F 30.9 °F 62% 29.89 in 10.0 mi West 20.7 mph 35.7 mph 0.00 in Rain Light Rain
7:53 PM 39.0 °F 27.0 °F 34.0 °F 82% 29.89 in 10.0 mi SW 31.1 mph 36.8 mph 0.02 in Rain Light Rain
8:01 PM 39.9 °F 28.0 °F 34.0 °F 79% 29.86 in 10.0 mi SW 32.2 mph 48.3 mph 0.00 in   Overcast
8:53 PM 41.0 °F 30.0 °F 32.0 °F 70% 29.85 in 10.0 mi SW 28.8 mph 38.0 mph 0.00 in   Scattered Clouds
9:53 PM 39.9 °F 30.8 °F 32.0 °F 73% 29.90 in 10.0 mi SW 18.4 mph 33.4 mph N/A   Scattered Clouds
10:53 PM 37.0 °F 32.4 °F 30.9 °F 79% 29.93 in 10.0 mi WNW 5.8 mph - N/A   Mostly Cloudy
11:53 PM 37.0 °F 24.9 °F 26.1 °F 65% 29.97 in 10.0 mi SW 27.6 mph 33.4 mph N/A   Overcast